Regional Weather Roundup
Issued by NWS

Current Version | Previous Version | Text Only | Print | Product List | Glossary On
Versions: 1 2 3 4 5 6 7 8 9 10 11 12 13 14 15 16 17 18 19 20 21 22 23 24 25 26 27 28 29 30 31 32 33 34 35 36 37 38 39 40 41 42 43 44 45 46 47 48 49 50
000
ASUS44 KLIX 031511
RWRLA
LOUISIANA WEATHER ROUNDUP
NATIONAL WEATHER SERVICE NEW ORLEANS LA
1000 AM CDT TUE MAY 03 2016

NOTE: "FAIR" INDICATES FEW OR NO CLOUDS BELOW 12,000 FEET WITH NO
      SIGNIFICANT WEATHER AND/OR OBSTRUCTIONS TO VISIBILITY.
      SKY/WX - SKY CONDITION AND SIGNIFICANT WEATHER.
      TMP - AIR TEMPERATURE.    DP   - DEWPOINT TEMPERATURE.
      RH  - RELATIVE HUMIDITY.  PRES - PRESSURE.
      HX  - HEAT INDEX.         WCI  - WIND CHILL INDEX.

*  THESE STATIONS ARE NOT NWS OR FAA STATIONS AND ARE NOT UNDER
   NWS QUALITY CONTROL.

LAZ040-048-061>063-065-066-069-031600-
SOUTHEAST LOUISIANA

CITY           SKY/WX    TMP DP  RH WIND       PRES   REMARKS
N.O. AUDUBON   NOT AVBL
N.O. INTL ARPT CLOUDY    73  67  81 N9        29.97R
N.O. LAKEFRONT CLOUDY    67  67 100 N7        29.98R
N.O. DOWNTOWN* CLOUDY    71  66  84 VRB5      29.98S
RESERVE*       CLOUDY    70  66  88 NW5       29.98S
SLIDELL        CLOUDY    70  67  90 NE6       29.96R
BATON ROUGE    CLOUDY    68  60  75 N6        29.99S
BOOTHVILLE     PTSUNNY   75  71  87 N8        29.95S
BELLE CHASSE   CLOUDY    70  68  93 NE6       29.97S
BOGALUSA*      CLOUDY    70  62  74 NE5       29.99S
GALLIANO*      CLOUDY    71  68  90 N8        29.97S
NEW ROADS*     CLOUDY    65  61  85 N6        30.01S
GONZALES*      CLOUDY    67  65  94 NW5       29.98S
HAMMOND*       CLOUDY    70  63  78 CALM      29.97S
HOUMA*         NOT AVBL
PORT FOURCHON* MOSUNNY   73  70  88 N10       29.96S

$$

LAZ041-044-053-054-031600-
SOUTHWEST LOUISIANA

CITY           SKY/WX    TMP DP  RH WIND       PRES   REMARKS
LAKE CHARLES   MOSUNNY   67  58  72 N9        30.02S
LAFAYETTE      CLOUDY    67  61  81 N9        30.01R
PATTERSON      NOT AVBL
SALT POINT       N/A     69  66  90 N7        29.98R
NEW IBERIA     CLOUDY    68  61  78 N12       30.01R
CHENAULT AIRPK PTSUNNY   68  59  73 N7        30.03R

$$

LAZ027-028-031600-
CENTRAL LOUISIANA

CITY           SKY/WX    TMP DP  RH WIND       PRES   REMARKS
FORT POLK      MOSUNNY   65  58  76 N8        30.04S
ALEXANDRIA INT MOSUNNY   64  57  78 N6        30.02R
ALEXANDRIA     PTSUNNY   70  58  65 VRB5      30.03S

$$

LAZ001-002-031600-
NORTHWEST LOUISIANA

CITY           SKY/WX    TMP DP  RH WIND       PRES   REMARKS
SHREVEPORT     MOSUNNY   63  51  65 N10       30.08R
BARKSDALE AFB  SUNNY     61  51  69 N9        30.08R
DTN SHREVEPORT SUNNY     62  52  69 VRB7      30.08S

$$

LAZ014-016-031600-
NORTHEAST LOUISIANA

CITY           SKY/WX    TMP DP  RH WIND       PRES   REMARKS
MONROE         SUNNY     66  56  70 NE3       30.04S
TALLULAH       SUNNY     71  57  61 NE7       30.02S

$$




USA.gov is the U.S. government's official web portal to all federal, state and local government web resources and services.